www.pogodaiklimat.ru

Погода и климат >> Архив погоды >> Украина >> Бобринец


ПОГОДА в Бобринце

  • Прогноз погоды в Бобринце
  • Монитор погоды в Бобринце

АРХИВ ПОГОДЫ в Бобринце

Время (UTC), дата Ветер
(напр.,м/с)
 
Видим.   Явления Облачность Т
(С)
Тd
(С)
f
(%)
Тe
(С)
Тes
(С)
Комфортность P
(гПа)
Po
(гПа)
Тmin
(С)
Tmax
(С)
R
(мм)
R24
(мм)
S
(см)
03 17.03 З 2 5000 м дымка 3/0
[Ac trans]
+2.6 +1.0 89 -1 -1 1008.0 990.3
06 17.03 З 3 20 км 3/0
[Ac lent]
+4.7 +1.0 77 +1 +3 1010.0 992.4 +2.0
09 17.03 СЗ 3 20 км 9/0
[Ac trans]
+6.0 +0.9 70 +3 +3 1013.0 995.4
12 17.03 СЗ 4 20 км 8/4 600 м
[Cu med, cong Ci ing]
+9.6 -0.0 51 +7 +7 1013.0 995.7
15 17.03 З 5 20 км 3/3 600 м
[Cu hum Ci ing]
+9.8 -0.4 49 +7 +7 1014.0 996.6
18 17.03 В 1 50 км 3/0
[Ci ing]
+4.8 -0.6 68 +4 +4 1016.0 998.3 +9.8
21 17.03 штиль 0 50 км ясно +3.8 +0.1 77 +3 +3 1017.0 999.2
00 18.03 ЮВ 3 50 км ясно +1.9 -1.2 80 -2 -2 1018.0 1000.1
03 18.03 СВ 1 4900 м дымка 8/0
[Ac trans]
+0.4 -1.0 90 -2 -2 1018.0 1000.0
06 18.03 ЮВ 3 4300 м дымка 4/0
[Ac trans]
+3.3 +1.8 90 -1 +1 1019.0 1001.2 +0.1
09 18.03 ЮВ 5 20 км 4/0
[Cs]
+12.1 +2.5 52 +10 +14 1019.0 1001.7
12 18.03 Ю 8 20 км 4/0
[Cs]
+15.6 +0.6 36 +14 +15 1018.0 1000.9
15 18.03 Ю 8 20 км 4/0
[Cc]
+13.4 -2.1 34 +11 +11 1019.0 1001.8
18 18.03 Ю 8 50 км ясно +8.0 -1.5 51 +4 +4 1021.0 1003.4 +16.6
21 18.03 Ю 4 50 км 6/0
[Ci ing]
+4.8 -1.0 66 +1 +1 1022.0 1004.2
00 19.03 ЮВ 3 4800 м дымка 6/0
[Ci]
+2.5 +0.9 89 -2 -2 1023.0 1005.0
03 19.03 ЮВ 2 4200 м дымка ясно +0.2 -0.4 96 -4 -4 1023.0 1004.9
06 19.03 ЮВ 2 8000 м дымка ясно +3.0 +0.9 86 -0 +3 1024.0 1006.1 -0.1
09 19.03 ЮВ 3 20 км 4/0
[Ci ing]
+10.9 -1.2 43 +9 +15 1024.0 1006.5
12 19.03 Ю 4 20 км 8/0
[Cc]
+14.2 -1.8 33 +13 +13 1023.0 1005.8
15 19.03 Ю 4 20 км 8/4 1000 м
[Cu hum Ac lent Cc]
+14.2 -4.1 28 +13 +13 1022.0 1004.8
18 19.03 Ю 2 50 км 8/0
[Ac trans]
+10.8 -0.1 47 +10 +10 1024.0 1006.5 +16.0
21 19.03 Ю 1 50 км 8/0
[Ac trans]
+8.1 -0.4 55 +8 +8 1025.0 1007.4
00 20.03 ЮЗ 1 50 км 8/0
[Ci ing]
+6.2 -1.0 60 +6 +6 1025.0 1007.2
03 20.03 СВ 1 50 км 6/0
[Ac trans]
+3.1 -0.4 78 +2 +2 1025.0 1007.0
06 20.03 ЮВ 1 20 км 8/0
[Ac trans]
+4.9 +0.1 71 +4 +4 1026.0 1008.1 +2.8
09 20.03 З 1 20 км 8/0
[Ac cast Cc]
+11.0 +0.1 47 +11 +11 1026.0 1008.5
12 20.03 СЗ 3 20 км 9/0
[Ac trans Cc]
+11.0 +2.6 56 +9 +9 1026.0 1008.5
15 20.03 С 4 20 км 9/6 750 м
[Sc Cc]
+7.6 +2.9 72 +4 +4 1027.0 1009.3
18 20.03 СЗ 4 50 км 8/8 1020 м
[Sc]
+6.4 +2.5 76 +3 +3 1029.0 1011.2 +12.5
21 20.03 СЗ 3 50 км ясно +2.8 -0.1 81 -1 -1 1030.0 1011.9
00 21.03 СЗ 3 50 км ясно +1.1 -1.5 83 -3 -3 1030.0 1011.8
03 21.03 СЗ 3 50 км ясно +0.1 -2.9 80 -4 -4 1030.0 1011.7
06 21.03 З 3 20 км ясно +3.3 -2.9 64 -0 +2 1030.0 1012.0 -0.2
09 21.03 З 6 20 км 4/0
[Cc]
+9.4 -7.3 30 +7 +9 1029.0 1011.4
12 21.03 З 7 20 км 8/0
[Ac trans Cc]
+12.1 -6.3 27 +10 +10 1026.0 1008.6
15 21.03 З 5 20 км 9/0
[Ac trans]
+9.8 -3.2 40 +7 +7 1026.0 1008.4
18 21.03 СЗ 2 50 км 8/0
[Ac trans]
+7.8 +0.5 60 +6 +6 1027.0 1009.3 +13.0
21 21.03 З 1 50 км 9/0
[Ac trans]
+5.5 +0.7 71 +5 +5 1028.0 1010.1
00 22.03 З 1 50 км 9/0
[Ac und]
+3.9 +1.3 83 +3 +3 1028.0 1010.0
03 22.03 СЗ 2 4900 м дымка 6/0
[Ci sp]
+3.5 +1.7 88 +1 +1 1027.0 1009.0
06 22.03 З 2 7000 м дымка 8/0
[Ci sp]
+4.9 +2.8 86 +2 +2 1026.0 1008.1 +3.2
09 22.03 З 4 20 км 8/4 1000 м
[Cu hum Ac lent Cc]
+11.4 +0.8 48 +10 +10 1024.0 1006.6
12 22.03 З 8 20 км 8/6 960 м
[Cb calv Ac trans]
+11.6 +0.4 46 +9 +9 1021.0 1003.6
15 22.03 З 8 20 км 9/6 1260 м
[Cu med, cong Ac trans Cc]
+11.0 +4.7 65 +8 +8 1019.0 1001.7
18 22.03 СЗ 5 50 км 8/0
[Ac trans]
+11.0 +3.8 61 +8 +8 1019.0 1001.6 +13.0
21 22.03 СЗ 1 50 км ясно +4.1 -2.5 62 +3 +3 1021.0 1003.2
00 23.03 З 2 50 км ясно +1.6 -5.5 59 -1 -1 1021.0 1003.0
03 23.03 З 3 50 км ясно +1.2 -6.6 56 -3 -3 1020.0 1002.0
06 23.03 СЗ 5 20 км 3/0
[Ci fib]
+3.1 -7.4 46 -1 -0 1021.0 1003.1 +0.7
09 23.03 СЗ 8 20 км 4/4 1000 м
[Cu med, cong]
+6.0 -7.9 36 +1 +3 1021.0 1003.3
12 23.03 СЗ 8 20 км 10/8 960 м
[Cb calv Ac und]
+5.9 -8.4 35 +1 +1 1021.0 1003.3
15 23.03 СЗ 5 20 км 9/9 1320 м
[Sc]
+5.4 -6.8 41 +2 +2 1022.0 1004.2
18 23.03 СЗ 4 20 км 9/0
[Ac trans]
+4.5 -4.0 54 +1 +1 1023.0 1005.2 +7.8
21 23.03 СЗ 3 50 км 9/0
[Ac trans]
+3.8 -2.8 62 0 0 1023.0 1005.1
00 24.03 СЗ 2 50 км 9/0
[Ac und]
+3.3 -2.4 66 +1 +1 1022.0 1004.1

 

Местоположение метеостанции Бобринец (Кировоградская область, Украина): широта 48.07 долгота 32.15 высота над уровнем моря 143 м.

В архиве по умолчанию представлена погода в Бобринце за последнюю неделю. Архивные данные за месяц целиком и за предыдущие месяцы, начиная с января 2011 года, Вы можете получить, выбрав интересующий диапазон дат из раскрывающегося списка и нажав кнопку "Ввод!".


*Определитесь, кто Вы:
робот инопланетянин человек

Внимание! Время в таблицах - всемирное. Для получения местного времени необходимо прибавить поправку, которая равна 2 ч.

Смотрите также архив погоды в соседних городах и на ближайших метеорологических станциях:

Погода в Долинской (Кировоградская область, Украина) (46 км)
Погода в Кропивницком (Кировоградская область, Украина) (50 км)
Погода в Помошной (Кировоградская область, Украина) (58 км)
Погода в Баштанке (Николаевская область, Украина) (76 км)
Погода в Кривом Роге (Днепропетровская область, Украина) (80 км)
Погода в Знаменке (Кировоградская область, Украина) (82 км)
Погода в Вознесенске (Николаевская область, Украина) (83 км)
Погода в Новомиргороде (Кировоградская область, Украина) (88 км)
Погода в Первомайске (Николаевская область, Украина) (97 км)
Погода в Николаеве (Николаевская область, Украина) (117 км)

Пояснения к столбцам:

Ветер - указаны скорость ветра в м/с - средняя за 10 мин, порывы в срок и между сроками (в фигурных скобках) и направление, откуда дует ветер: С - северный, СВ - северо-восточный, В - восточный, ЮВ - юго-восточный, Ю - южный, ЮЗ - юго-западный, З - западный, СЗ - северо-западный.
Видимость - горизонтальная дальность видимости в метрах или километрах. При видимости от 1 до 10 км при отсутствии осадков обычно наблюдается дымка, при ухудшении видимости до 1 км и менее - туман. В сухую погоду видимость может ухудшаться дымом, пылью или мглою.
Явления - указаны атмосферные явления, наблюдавшиеся в срок или в последний час перед сроком; фигурными скобками обозначены явления, наблюдавшиеся между сроками (за 1-3 часа до срока); квадратными скобками обозначены град или гололедные отложения с указанием их диаметра в мм.
Облачность - указаны через наклонную черту общая и нижняя облачность в баллах и высота нижней границы облаков в метрах; квадратными скобками обозначены формы облаков: Ci - перистые, Cs - перисто-слоистые, Cc - перисто-кучевые, Ac - высококучевые, As - высокослоистые, Sc - слоисто-кучевые, Ns - слоисто-дождевые, Cu - кучевые, Cb - кучево-дождевые. Подробнее классификацию облаков см. в Атласе облаков (PDF).
T - Температура воздуха - температура, измеренная на высоте 2 м над землей.
Td - Температура точки росы - температура, при понижении до которой содержащийся в воздухе водяной пар достигнет насыщения.
f - Относительная влажность воздуха - влажноcть воздуха, измеренная на высоте 2 м над землей.
Te - Эффективная температура - температура, которую ощущает одетый по сезону человек в тени. Характеристика душности погоды. При расчете учитывается влияние влажности воздуха и скорости ветра на теплоощущения человека.
Tes - Эффективная температура на солнце - температура, которую ощущает человек, с поправкой на солнечный нагрев. Характеристика знойности погоды. Зависит от высоты солнца над горизонтом, облачности и скорости ветра. Ночью, в пасмурную погоду, а также при ветре 12 м/с и более поправка равна нулю.
P - Атмосферное давление - приведенное к уровню моря атмосферное давление.
Po - Атмосферное давление - измеренное на уровне метеостанции атмосферное давление.
Tmin - Минимальная температура - минимум температуры воздуха на высоте 2 м над землей.
Tmax - Максимальная температура - максимум температуры воздуха на высоте 2 м над землей.
R - Количество осадков - Количество выпавших осадков за период времени, мм. При наведении курсора мыши на число - период времени, за который выпало указанное количество осадков.
R24 - Количество осадков - Количество выпавших осадков за 24 часа, мм.
S - Снежный покров - Высота снежного покрова, см. При наведении курсора мыши на число - состояние снежного покрова и степень покрытия местности в баллах.